ONEWEB-0677, 56713

Orbit data source: Space-Track

ONEWEB-0677, 56713 is a payload satellite owned by One Web (NAA) (UK) in LEO that was launched on Sat, 20 May 2023 UTC via an FALCON 9 launch vehicle from the Air Force Western Test Range (AFWTR). Payload-class satellites include a variety of spacecraft equipped with specific instruments for various scientific and technological missions. These include communications satellites like Starlink; space stations such as the ISS; scientific satellites like the Hubble; Earth observation satellites from companies like Planet Labs, Umbra, and HawkEye 360; GPS; miniature CubeSats for education and research; and military/defense satellites.

Loading next visibility...
Identifier
56713, 2023-068D
Orbit
LEO
Country
Flag of UKUK
Related business
Manufacturer
One Web
Mission
Operational Commercial Communications
Bus & Motor
ARROW, Unknown motor
Mass
148 kg wet, ~140 kg dry
Launch date (UTC)
2023-05-20 (3 years ago)
Launch vehicle
FALCON 9
Launch site
Air Force Western Test Range (AFWTR)
Object type
Payload
Rocket body
Debris
Shape & HBR
Trap Box + 2 Pan, 6.7 m
Radar Cross Section
3.464 m², Large (>1 m²)

Expand to show TLE details & history
Last TLE update: 2 days ago

TLE from 2 days ago
0 ONEWEB-0677
1 56713U 23068D   26171.36767352  .00000004  00000-0 -22709-4 0  9996
2 56713  87.9196 273.8008 0002211  91.0703 269.0683 13.20770630150221
Epoch: 2026-06-20T08:49Z
TLE epoch observation values (Epoch: 2026-06-20T08:49:26.992Z)
Latitude
-0.00007°
Longitude
-127.14498°
Altitude
1,184.709 km
Speed
7.261 km/s
True Right ascension
18h 15m 12s
True Declination
0° 00' 00"
Sunlit
Object was in full shadow at epoch
Visualization orbit readout
Latitude
Unknown
Longitude
Unknown
Altitude
Unknown
Speed
Unknown
Apparent Right ascension
Unknown
Apparent Declination
Unknown
Sunlit
N/A
Visualization observer readout
Local Sidereal Time
21:32:29
Azimuth
Unknown
Elevation
Unknown
Doppler factor
Unknown
Orbital elements
Apogee altitude
1,180.553 km
Perigee altitude
1,177.211 km
Semi-major axis
7,557.019 km
Eccentricity
0.00022
Inclination
87.9196°
RAAN
273.8008°
Arg. of periapsis
91.0703°
True anomaly
269.04297°
Mean anomaly
269.0683°
Eccentric anomaly
269.05563°
Mean motion
3.30383 °/min
Orbital period
108.96 mins
BSTAR
-0.000022709
Loading maneuver chart data...
Computing Atmospheric mass density...
Loading historical data...
Loading historical data...
Loading historical data...
Loading historical data...
Loading historical data...
Loading historical data...
Loading historical data...

Documentation

Showing up to 5 results
|